When you browse on this site, cookies collect data to enhance your experience and personalize the content and advertising you see.
Visit our Privacy Policy to learn more. By continuing to use the site, you agree to this use of cookies and data.
EN

Hourly Weather Mirzyam

Today, 10 August, Monday

Time Temperature Precipitation Wind Pressure Humidity
00:00 +12°C° 0 mm 5 mps 745 mmHg 91%
01:00 +12°C° 0 mm 5 mps 745 mmHg 91%
02:00 +10°C° 0 mm 5 mps 745 mmHg 91%
03:00 +9°C° 0 mm 5 mps 746 mmHg 88%
04:00 +9°C° 0 mm 5 mps 746 mmHg 87%
05:00 +9°C° 0 mm 6 mps 746 mmHg 85%
06:00 +10°C° 0 mm 6 mps 746 mmHg 84%
07:00 +11°C° 0 mm 6 mps 746 mmHg 80%
08:00 +13°C° 0 mm 6 mps 746 mmHg 75%
09:00 +15°C° 0 mm 7 mps 746 mmHg 70%
10:00 +15°C° 0 mm 7 mps 746 mmHg 68%
11:00 +16°C° 0 mm 7 mps 746 mmHg 66%
12:00 +17°C° 0 mm 6 mps 746 mmHg 63%
13:00 +19°C° 0 mm 6 mps 746 mmHg 63%
14:00 +19°C° 0 mm 6 mps 746 mmHg 62%
15:00 +19°C° 0 mm 6 mps 746 mmHg 61%
16:00 +19°C° 0 mm 5 mps 746 mmHg 65%
17:00 +18°C° 0 mm 4 mps 746 mmHg 69%
18:00 +17°C° 0 mm 4 mps 746 mmHg 73%
19:00 +15°C° 0 mm 4 mps 746 mmHg 77%
20:00 +13°C° 0 mm 3 mps 746 mmHg 81%
21:00 +12°C° 0 mm 3 mps 747 mmHg 85%
22:00 +11°C° 0 mm 3 mps 747 mmHg 87%
23:00 +11°C° 0 mm 3 mps 747 mmHg 88%

Tomorrow, 11 August, Tuesday

Time Temperature Precipitation Wind Pressure Humidity
00:00 +11°C° 0 mm 3 mps 747 mmHg 90%
01:00 +10°C° 0 mm 3 mps 747 mmHg 90%
02:00 +10°C° 0 mm 3 mps 747 mmHg 91%
03:00 +10°C° 0 mm 3 mps 747 mmHg 91%
04:00 +10°C° 0 mm 3 mps 748 mmHg 89%
05:00 +11°C° 0 mm 3 mps 748 mmHg 86%
06:00 +13°C° 0 mm 2 mps 748 mmHg 84%
07:00 +15°C° 0 mm 2 mps 748 mmHg 77%
08:00 +16°C° 0 mm 2 mps 748 mmHg 70%
09:00 +18°C° 0 mm 2 mps 747 mmHg 64%
10:00 +19°C° 0 mm 2 mps 748 mmHg 60%
11:00 +20°C° 0 mm 2 mps 748 mmHg 56%
12:00 +21°C° 0 mm 2 mps 748 mmHg 52%
13:00 +21°C° 0 mm 2 mps 747 mmHg 52%
14:00 +21°C° 0 mm 2 mps 747 mmHg 53%
15:00 +21°C° 0 mm 2 mps 747 mmHg 53%
16:00 +21°C° 0 mm 2 mps 747 mmHg 58%
17:00 +20°C° 0 mm 2 mps 747 mmHg 64%
18:00 +20°C° 0 mm 1 mps 747 mmHg 69%
19:00 +19°C° 0 mm 1 mps 747 mmHg 69%
20:00 +18°C° 0 mm 1 mps 747 mmHg 70%
21:00 +18°C° 0 mm 1 mps 747 mmHg 70%
22:00 +16°C° 0 mm 1 mps 747 mmHg 72%
23:00 +16°C° 0 mm 1 mps 747 mmHg 73%

Day after tomorrow, 12 August, Wednesday

Time Temperature Precipitation Wind Pressure Humidity
00:00 +16°C° 0 mm 1 mps 747 mmHg 74%
01:00 +15°C° 0.1 mm 1 mps 747 mmHg 76%
02:00 +15°C° 0.1 mm 1 mps 747 mmHg 78%
03:00 +15°C° 0.1 mm 1 mps 747 mmHg 80%
04:00 +14°C° 0.3 mm 1 mps 747 mmHg 82%
05:00 +14°C° 0.3 mm 2 mps 746 mmHg 85%
06:00 +14°C° 0.3 mm 2 mps 746 mmHg 88%
07:00 +14°C° 0.1 mm 2 mps 746 mmHg 88%
08:00 +14°C° 0.1 mm 2 mps 747 mmHg 88%
09:00 +14°C° 0.1 mm 2 mps 747 mmHg 88%
10:00 +15°C° 0 mm 2 mps 747 mmHg 87%
11:00 +15°C° 0 mm 2 mps 747 mmHg 86%
12:00 +15°C° 0 mm 2 mps 747 mmHg 84%
13:00 +16°C° 0 mm 2 mps 747 mmHg 83%
14:00 +16°C° 0 mm 2 mps 747 mmHg 81%
15:00 +16°C° 0 mm 2 mps 747 mmHg 79%
16:00 +16°C° 0 mm 2 mps 747 mmHg 80%
17:00 +16°C° 0 mm 2 mps 747 mmHg 81%
18:00 +16°C° 0 mm 2 mps 746 mmHg 82%
19:00 +15°C° 0 mm 2 mps 746 mmHg 83%
20:00 +15°C° 0 mm 2 mps 746 mmHg 84%
21:00 +14°C° 0 mm 2 mps 746 mmHg 85%
22:00 +13°C° 0 mm 2 mps 746 mmHg 85%
23:00 +13°C° 0 mm 2 mps 746 mmHg 84%

13 August, Thursday

Time Temperature Precipitation Wind Pressure Humidity
00:00 +13°C° 0 mm 2 mps 746 mmHg 84%
01:00 +13°C° 0.6 mm 2 mps 746 mmHg 86%
02:00 +12°C° 0.6 mm 3 mps 745 mmHg 88%
03:00 +12°C° 0.6 mm 3 mps 745 mmHg 90%
04:00 +12°C° 2 mm 3 mps 745 mmHg 92%
05:00 +12°C° 2 mm 4 mps 745 mmHg 94%
06:00 +12°C° 2 mm 5 mps 745 mmHg 97%
07:00 +12°C° 2.5 mm 5 mps 744 mmHg 96%
08:00 +11°C° 2.5 mm 6 mps 744 mmHg 96%
09:00 +11°C° 2.5 mm 6 mps 744 mmHg 96%
10:00 +11°C° 3.8 mm 6 mps 744 mmHg 96%
11:00 +11°C° 3.8 mm 6 mps 744 mmHg 97%
12:00 +12°C° 3.8 mm 5 mps 744 mmHg 97%
13:00 +12°C° 3.4 mm 5 mps 744 mmHg 97%
14:00 +12°C° 3.4 mm 5 mps 743 mmHg 97%
15:00 +12°C° 3.4 mm 5 mps 743 mmHg 96%
16:00 +12°C° 1.8 mm 5 mps 743 mmHg 96%
17:00 +12°C° 1.8 mm 5 mps 743 mmHg 97%
18:00 +10°C° 1.8 mm 6 mps 743 mmHg 97%
19:00 +10°C° 1 mm 6 mps 743 mmHg 97%
20:00 +10°C° 1 mm 6 mps 743 mmHg 97%
21:00 +10°C° 1 mm 6 mps 742 mmHg 97%
22:00 +10°C° 1.5 mm 6 mps 742 mmHg 97%
23:00 +10°C° 1.5 mm 5 mps 742 mmHg 97%

14 August, Friday

Time Temperature Precipitation Wind Pressure Humidity
00:00 +10°C° 1.5 mm 5 mps 742 mmHg 97%
01:00 +10°C° 0.9 mm 5 mps 742 mmHg 97%
02:00 +10°C° 0.9 mm 5 mps 742 mmHg 97%
03:00 +10°C° 0.9 mm 5 mps 741 mmHg 97%
04:00 +10°C° 1.2 mm 5 mps 741 mmHg 97%
05:00 +11°C° 1.2 mm 4 mps 741 mmHg 97%
06:00 +11°C° 1.2 mm 4 mps 741 mmHg 97%
07:00 +11°C° 1.1 mm 4 mps 741 mmHg 97%
08:00 +11°C° 1.1 mm 4 mps 741 mmHg 96%
09:00 +10°C° 1.1 mm 5 mps 741 mmHg 96%
10:00 +10°C° 0.2 mm 5 mps 741 mmHg 96%
11:00 +10°C° 0.2 mm 5 mps 741 mmHg 95%
12:00 +9°C° 0.2 mm 5 mps 742 mmHg 95%
13:00 +10°C° 0.1 mm 5 mps 742 mmHg 94%
14:00 +10°C° 0.1 mm 5 mps 742 mmHg 94%
15:00 +10°C° 0.1 mm 5 mps 742 mmHg 93%
16:00 +9°C° 0 mm 5 mps 742 mmHg 93%
17:00 +9°C° 0 mm 5 mps 742 mmHg 93%
18:00 +9°C° 0 mm 5 mps 742 mmHg 94%
19:00 +9°C° 0 mm 5 mps 742 mmHg 94%
20:00 +10°C° 0 mm 4 mps 742 mmHg 94%
21:00 +10°C° 0 mm 4 mps 742 mmHg 95%
22:00 +10°C° 0 mm 4 mps 742 mmHg 95%
23:00 +10°C° 0 mm 3 mps 742 mmHg 95%

15 August, Saturday

Time Temperature Precipitation Wind Pressure Humidity
00:00 +9°C° 0 mm 3 mps 742 mmHg 96%
01:00 +10°C° 0 mm 3 mps 742 mmHg 96%
02:00 +10°C° 0 mm 3 mps 742 mmHg 96%
03:00 +10°C° 0 mm 3 mps 742 mmHg 96%
04:00 +10°C° 0 mm 2 mps 742 mmHg 96%
05:00 +10°C° 0 mm 2 mps 742 mmHg 96%
06:00 +12°C° 0 mm 2 mps 741 mmHg 96%
07:00 +12°C° 0 mm 2 mps 741 mmHg 94%
08:00 +13°C° 0 mm 2 mps 741 mmHg 93%
09:00 +13°C° 0 mm 1 mps 741 mmHg 91%
10:00 +14°C° 0.1 mm 1 mps 742 mmHg 91%
11:00 +14°C° 0.1 mm 1 mps 742 mmHg 90%
12:00 +15°C° 0.1 mm 2 mps 742 mmHg 90%
13:00 +16°C° 0.6 mm 2 mps 742 mmHg 87%
14:00 +16°C° 0.6 mm 2 mps 742 mmHg 85%
15:00 +17°C° 0.6 mm 2 mps 742 mmHg 83%
16:00 +16°C° 1.3 mm 2 mps 742 mmHg 86%
17:00 +15°C° 1.3 mm 2 mps 742 mmHg 89%
18:00 +15°C° 1.3 mm 2 mps 742 mmHg 91%
19:00 +13°C° 0.1 mm 3 mps 742 mmHg 93%
20:00 +12°C° 0.1 mm 3 mps 742 mmHg 95%
21:00 +12°C° 0.1 mm 3 mps 742 mmHg 97%
22:00 +12°C° 0 mm 3 mps 742 mmHg 97%
23:00 +11°C° 0 mm 3 mps 742 mmHg 97%
Show more